| Station | Date | Time | Temp (°F) | RH (%) | Dew Pt (°F) | Wind Spd (mph) | Wind Dir (°) | Wind Gust (mph) | Latest Rain (In) | Daily Rain (In) | Daily Max Temp (°F) | Daily Min Temp (°F) |
|---|---|---|---|---|---|---|---|---|---|---|---|---|
| Bavarian Lion EFW | 5/3/26 | 1230 | 60.3 1.1 | - | - | - | - | - | 0.00 | 0.00 | 61.1 2.0 | 51.9 0.2 |
| Rockpile Lower (Cooley) | 5/3/26 | 1215 | 54.3 5.2 | 79 0 | 47.9 5.0 | 3.3 1.4 | SE | 129 | 7.8 2.5 | 0.00 | 0.00 | 55.0 5.1 | 49.4 0.9 |
| Rockpile Upper (Cooley) | 5/3/26 | 1230 | 50.3 6.6 | 89 2 | 47.2 6.0 | 6.1 1.0 | S | 179 | 9.2 4.6 | 0.00 | 0.00 | 50.5 7.2 | 46.6 0.5 |
| Lower Dry Creek Valley | 5/3/26 | 1230 | 61.5 3.0 | 58 16 | 46.6 3.7 | 2.2 2.4 | SE | 146 | 6.8 1.8 | 0.00 | 0.00 | 62.0 3.2 | 53.3 0.9 |
| Geyserville-South (Nervo Station) | 5/3/26 | 1230 | 57.9 1.4 | - | - | 2.7 1.7 | S | 173 | 6.4 2.0 | 0.00 | 0.00 | 58.5 0.5 | 51.8 0.6 |
| Franz Valley (Stornetta) | 5/3/26 | 1230 | 57.8 6.6 | 66 2 | 46.7 5.4 | 1.9 1.1 | SSW | 209 | 6.2 2.7 | 0.00 | 0.00 | 58.5 6.6 | 51.7 2.6 |
| Geyserville (Ranch 3) | 5/3/26 | 1230 | 58.4 0.7 | 68 6 | 47.7 2.8 | 2.0 1.5 | SE | 138 | 4.9 3.4 | 0.00 | 0.00 | 58.8 1.2 | 52.8 0.2 |
| Geyserville-North (Hoffman) | 5/3/26 | 1230 | 58.4 0.7 | 70 5 | 48.7 2.5 | 2.5 2.2 | SSE | 150 | 5.0 3.9 | 0.00 | 0.00 | 58.9 1.1 | 53.1 0.3 |
| Knights Valley (Bavarian Lion) | 5/3/26 | 1230 | 58.7 2.0 | 64 6 | 46.7 4.1 | 3.3 0.8 | WSW | 242 | 6.6 0.1 | 0.00 | 0.00 | 59.3 1.7 | 51.5 0.8 |
| HWY 128/Chalk Hill Rd (Landslide) | 5/3/26 | 1200 | 58.8 0.1 | 66 9 | 47.4 3.6 | 2.2 0.1 | S | 170 | 5.0 1.8 | 0.00 | 0.00 | 59.2 0.3 | 53.0 0.7 |
| Newman Knights Valley | 5/3/26 | 1230 | 57.8 0.6 | 72 6 | 48.9 2.6 | 0.8 2.5 | WSW | 248 | 3.5 3.3 | 0.00 | 0.00 | 58.5 0.3 | 52.4 0.4 |
| Jimtown-North (Piccolo Ranch 15) | 5/3/26 | 1230 | 59.5 1.1 | 63 10 | 47.0 2.9 | 2.4 0.2 | SSE | 151 | 7.9 2.0 | 0.00 | 0.00 | 60.2 1.4 | 52.7 0.7 |
| Peterson (Ranch 09) | 5/3/26 | 1230 | 57.6 0.8 | 66 12 | 46.4 3.6 | 3.8 1.5 | SSE | 166 | 7.3 1.1 | 0.00 | 0.00 | 57.9 0.8 | 52.1 0.9 |
| Cloverdale-SE (Ranch 38) | 5/3/26 | 1230 | 57.2 0.2 | 76 7 | 49.8 2.1 | 3.0 5.2 | SSE | 152 | 9.2 3.9 | 0.00 | 0.00 | 57.9 0.1 | 51.0 0.8 |
| Geyserville-East (Ranch 40) | 5/3/26 | 1230 | 55.0 0.1 | 80 8 | 48.9 2.6 | 6.6 2.9 | SSE | 158 | 10.8 3.7 | 0.00 | 0.00 | 55.6 0.4 | 50.0 0.0 |
| N Chalk Hill Rd (Ranch 63) | 5/3/26 | 1230 | 59.3 0.9 | 63 10 | 46.8 3.0 | 2.6 1.2 | SE | 145 | 7.0 0.3 | 0.00 | 0.00 | 60.0 1.2 | 51.2 1.1 |
| Cloverdale-East (Ranch 83) | 5/3/26 | 1230 | 58.6 0.8 | - | - | 5.0 0.1 | SE | 141 | 9.6 1.5 | 0.00 | 0.00 | 58.9 1.2 | 52.9 1.7 |
| Crazy Creek Ranch | 5/3/26 | 1230 | 58.0 0.6 | 74 7 | 49.6 3.1 | 3.0 0.1 | ESE | 112 | 5.9 0.9 | 0.00 | 0.00 | 58.0 0.6 | 52.3 0.1 |
| Lytton East (Hill 5) | 5/3/26 | 1230 | 58.5 2.5 | 66 15 | 47.3 3.0 | 4.3 0.2 | SE | 139 | 7.9 0.3 | 0.00 | 0.00 | 59.6 3.2 | 51.9 0.9 |
| Lytton East (Shop Hill Bottom) | 5/3/26 | 1230 | 59.2 2.6 | 64 15 | 46.9 3.1 | 3.5 0.0 | ESE | 120 | 7.5 0.6 | 0.00 | 0.00 | 60.6 3.4 | 52.2 1.0 |
| Lytton West Hill (23PS) | 5/3/26 | 1230 | 60.8 3.1 | 60 17 | 46.8 3.6 | 3.4 1.5 | ENE | 64 | 7.0 2.8 | 0.00 | 0.00 | 61.3 2.6 | 52.5 0.9 |
| Lytton West Lower (Lew 6) | 5/3/26 | 1230 | 59.9 2.7 | 62 15 | 46.9 3.3 | 2.7 1.0 | E | 100 | 5.3 2.5 | 0.00 | 0.00 | 61.3 3.4 | 52.4 0.9 |
| Whitton Ranch (201e) | 5/3/26 | 1230 | 59.2 1.4 | 66 11 | 47.9 2.9 | 3.2 0.2 | S | 169 | 6.4 0.7 | 0.00 | 0.00 | 59.4 0.6 | 52.3 0.6 |
| Upper Dry Creek Valley | 5/3/26 | 1200 | 60.1 0.8 | 64 8 | 47.7 2.4 | 3.3 1.2 | SE | 132 | 6.1 2.6 | 0.00 | 0.00 | 60.6 0.8 | 53.2 1.2 |
| Big River | 5/3/26 | 1230 | 58.8 1.4 | 69 12 | 48.6 3.1 | 2.4 1.6 | E | 88 | 7.6 0.0 | 0.00 | 0.00 | 59.2 1.3 | 52.3 0.5 |
| Max | 61.5 | 89 | 49.8 | 6.6 | - | 10.8 | 0.00 | 0.00 | 62.0 | 53.3 | ||
| Avg | 58.2 | 68 | 47.7 | 3.2 | - | 7.0 | 0.00 | - | - | - | ||
| Min | 50.3 | 58 | 46.4 | 0.8 | - | 3.5 | 0.00 | 0.00 | 50.5 | 46.6 |
| Station | Date | Time | Temp (°F) | RH (%) | Dew Pt (°F) | Wind Spd (mph) | Wind Dir (°) | Wind Gust (mph) | Latest Rain (In) | Daily Rain (In) | Daily Max Temp (°F) | Daily Min Temp (°F) |
|---|---|---|---|---|---|---|---|---|---|---|---|---|
| Windsor-NW (Ranch 8) | 5/3/26 | 1230 | 60.0 2.1 | 68 14 | 49.5 3.0 | 1.9 0.8 | SW | 230 | 6.1 1.4 | 0.00 | 0.00 | 63.1 4.7 | 52.7 0.5 |
| Windsor-East (Ranch 16) | 5/3/26 | 1230 | 59.9 0.9 | 63 11 | 47.2 3.4 | 2.8 1.1 | SE | 145 | 5.7 3.1 | 0.00 | 0.00 | 60.6 1.1 | 53.1 0.7 |
| Mark West-North (Ranch 14) | 5/3/26 | 1230 | 59.6 1.2 | 62 12 | 46.7 3.5 | 1.8 0.5 | SSW | 193 | 5.5 0.1 | 0.00 | 0.00 | 60.3 1.0 | 53.0 0.4 |
| Windsor-SE (Silk Rd) | 5/3/26 | 1230 | 59.6 1.6 | 65 14 | 47.8 3.6 | 2.6 0.2 | S | 175 | 5.8 0.4 | 0.00 | 0.00 | 60.3 1.5 | 53.4 1.1 |
| Fulton-NW (Ranch 5) | 5/3/26 | 1230 | 60.2 0.8 | 64 9 | 47.8 2.9 | 3.5 0.2 | SSW | 194 | 6.9 0.7 | 0.00 | 0.00 | 61.6 1.6 | 53.0 0.4 |
| Bisordi (Fulton) | 5/3/26 | 1230 | 59.3 0.6 | 72 6 | 50.3 1.6 | 2.9 0.5 | WSW | 237 | 6.6 0.4 | 0.00 | 0.00 | 59.5 0.8 | 53.4 0.5 |
| Windsor-South (Laughlin Rd) | 2/28/26 | 0515 | 55.4 5.1 | 92 7 | 53.2 3.1 | - | - | - | 0.00 | 0.00 | 61.9 7.4 | 55.2 5.6 |
| Fulton-SE (Barnes Rd) | 5/3/26 | 1230 | 59.9 0.5 | 63 9 | 47.5 3.3 | 0.0 2.5 | N | 0 | 0.0 6.6 | 0.00 | 0.00 | 60.2 0.7 | 53.7 0.8 |
| Fulton-SW (Ranch 21) | 5/3/26 | 1230 | 58.6 0.4 | 66 7 | 47.3 3.2 | 3.9 0.1 | SW | 218 | 8.9 0.9 | 0.00 | 0.00 | 60.1 0.9 | 52.6 0.6 |
| NW Santa Rosa (Piner Road) | 5/3/26 | 1230 | 58.2 0.4 | 75 12 | 50.3 3.5 | 1.5 1.5 | SW | 219 | 4.8 1.3 | 0.00 | 0.00 | 60.0 1.6 | 52.9 0.7 |
| River Rd South (Denner Ranch) | 5/3/26 | 1230 | 58.9 0.5 | 66 10 | 47.7 3.2 | 3.5 0.5 | SSE | 162 | 7.0 0.9 | - | - | 60.3 1.6 | 52.5 1.1 |
| West Santa Rosa (LOV Vineyard) | 5/3/26 | 1230 | 58.8 0.4 | 67 9 | 47.9 3.1 | 0.4 1.5 | ESE | 103 | 2.8 2.2 | 0.00 | 0.00 | 59.9 1.2 | 53.1 0.8 |
| Guerneville Rd (Prokopakis) | 5/3/26 | 1230 | 61.0 0.2 | 64 8 | 48.6 3.4 | - | - | - | 0.00 | 0.00 | 61.5 0.0 | 53.7 0.9 |
| SunnyView Vineyard (SCWC) | 5/3/26 | 1230 | 59.2 0.1 | 65 8 | 47.6 3.0 | 1.2 1.4 | NE | 56 | 3.9 3.6 | 0.00 | 0.00 | 60.0 0.3 | 52.7 0.7 |
| Guerneville Rd West (Balletto) | 5/3/26 | 1230 | 59.3 0.9 | 70 10 | 49.4 2.9 | 1.3 2.3 | W | 266 | 4.1 3.8 | 0.00 | 0.00 | 59.6 0.9 | 53.2 0.7 |
| Sanchietti Ranch | 5/3/26 | 1230 | 61.5 1.8 | 71 10 | 51.9 1.9 | 2.4 1.1 | WSW | 251 | 5.8 2.7 | 0.00 | 0.00 | 61.5 1.4 | 54.0 0.5 |
| Occidental Rd (Sebastopol) | 5/3/26 | 1230 | 60.2 1.2 | 94 6 | 58.4 0.6 | 3.3 0.2 | SW | 220 | 8.6 0.0 | 0.00 | 0.00 | 60.7 1.3 | 52.5 0.7 |
| Harper's Rest (Windsor-West) | 5/3/26 | 1230 | 58.0 0.5 | 64 11 | 46.1 3.6 | 2.4 0.9 | SSW | 197 | 5.5 1.6 | 0.00 | 0.00 | 59.4 1.6 | 51.9 1.2 |
| Lower Westside Rd (Ranch 12) | 5/3/26 | 1230 | 59.4 0.8 | 63 11 | 46.7 3.7 | 2.2 0.3 | S | 181 | 5.7 0.1 | 0.00 | 0.00 | 61.1 1.9 | 52.9 0.9 |
| Guerneville (Laughlin Rd) | 5/3/26 | 1230 | 59.9 2.1 | 61 16 | 46.3 4.4 | 1.6 1.7 | E | 85 | 3.8 3.4 | 0.00 | 0.00 | 59.9 1.1 | 53.1 0.7 |
| Korbel (Winery) | 5/3/26 | 1230 | 60.4 3.1 | 60 19 | 46.6 4.4 | 2.4 0.2 | SSE | 152 | 4.6 4.3 | 0.00 | 0.00 | 60.6 1.7 | 53.6 1.2 |
| Forestville (Shone Farms) | 5/3/26 | 1230 | 58.9 0.8 | 65 12 | 47.3 3.7 | 2.6 0.0 | SW | 232 | 6.2 0.0 | 0.00 | 0.00 | 61.1 1.8 | 51.2 0.7 |
| Forestville-NE (Ranch 30) | 5/3/26 | 1230 | 59.9 2.4 | 69 14 | 49.6 2.7 | 2.9 1.5 | W | 266 | 5.3 2.7 | 0.00 | 0.00 | 60.9 3.1 | 52.5 1.2 |
| Foggy Bend (Ranch 41) | 5/3/26 | 1230 | 59.6 1.1 | 68 11 | 49.1 3.0 | 2.6 0.9 | WSW | 241 | 5.0 2.1 | 0.00 | 0.00 | 60.0 1.2 | 53.6 1.0 |
| Last Stop | 5/3/26 | 1230 | 59.0 0.8 | 69 12 | 48.9 3.7 | 1.4 0.4 | SSW | 212 | 5.1 0.6 | 0.00 | 0.00 | 59.5 1.3 | 53.0 1.4 |
| Green Valley Vineyard | 5/3/26 | 1230 | 59.0 1.9 | 64 17 | 47.0 4.3 | 2.5 0.6 | W | 278 | 6.4 1.8 | 0.00 | 0.00 | 59.3 1.8 | 52.2 1.6 |
| Park Royal | 5/3/26 | 1230 | 59.4 1.0 | 63 12 | 46.7 3.7 | - | - | - | 0.00 | 0.00 | 60.3 1.7 | 52.9 0.4 |
| Merino | 5/3/26 | 1230 | 59.2 0.5 | 71 11 | 50.0 3.5 | 2.3 0.6 | SW | 215 | 4.7 1.2 | 0.00 | 0.00 | 59.7 0.8 | 52.8 0.4 |
| Green Valley (Sanchietti) | 5/3/26 | 1230 | 61.1 2.6 | - | - | - | - | - | - | - | 61.5 2.5 | 53.6 1.5 |
| Keefer Ranch (Green Valley) | 5/3/26 | 1230 | 59.8 2.6 | 67 16 | 48.9 3.3 | - | - | - | 0.00 | 0.00 | 59.9 2.0 | 53.5 1.5 |
| Graton-West (Dutton Ranch) | 5/3/26 | 1230 | 59.9 2.6 | 77 23 | 52.6 4.8 | 1.6 1.7 | SSE | 162 | 5.0 1.1 | 0.00 | 0.00 | 60.5 2.1 | 53.3 1.3 |
| Graton-South (Mill Station Rd) | 5/3/26 | 1230 | 59.2 2.5 | 66 17 | 47.8 3.7 | 1.3 0.2 | SSW | 192 | 4.6 0.8 | 0.00 | 0.00 | 59.6 2.5 | 52.1 0.6 |
| Occidental (Horseshoe Bend) | 5/3/26 | 1230 | 57.1 3.0 | 69 20 | 47.1 3.9 | - | - | - | 0.00 | 0.00 | 57.2 2.4 | 50.3 0.8 |
| Sexton Valley (Jacqueline's Blk) | 5/3/26 | 1230 | 59.1 2.8 | 71 14 | 49.9 2.3 | 2.0 0.5 | WSW | 247 | 6.8 1.8 | 0.00 | 0.00 | 59.7 2.6 | 52.5 0.6 |
| Sebastopol Hills (Burnside Rd) | 5/3/26 | 1230 | 56.5 2.3 | 77 16 | 49.4 2.8 | 3.5 0.0 | SW | 218 | 8.2 2.0 | 0.00 | 0.00 | 56.6 1.7 | 50.7 0.5 |
| Pleasant Hill | 5/3/26 | 1230 | 59.3 1.9 | 66 14 | 47.9 3.2 | 3.0 0.7 | NW | 313 | 6.1 1.7 | 0.00 | 0.00 | 60.0 2.2 | 51.3 0.6 |
| Seaview/Fort Ross (Hirsch) | 5/3/26 | 1230 | 51.3 0.0 | 86 10 | 47.4 2.9 | 1.2 0.8 | W | 266 | 4.2 1.2 | 0.00 | 0.00 | 51.9 4.3 | 46.1 0.5 |
| Max | 61.5 | 94 | 58.4 | 3.9 | - | 8.9 | 0.00 | 0.00 | 63.1 | 54.0 | ||
| Avg | 59.2 | 68 | 48.6 | 2.2 | - | 5.5 | 0.00 | - | - | - | ||
| Min | 51.3 | 60 | 46.1 | 0.0 | - | 0.0 | 0.00 | 0.00 | 51.9 | 46.1 |
| Station | Date | Time | Temp (°F) | RH (%) | Dew Pt (°F) | Wind Spd (mph) | Wind Dir (°) | Wind Gust (mph) | Latest Rain (In) | Daily Rain (In) | Daily Min Temp (°F) | Daily Max Temp (°F) |
|---|---|---|---|---|---|---|---|---|---|---|---|---|
| Upper Rincon Valley | 5/3/26 | 1230 | 54.4 1.9 | 73 5 | 46.1 3.6 | 1.5 1.6 | SSW | 211 | 5.2 1.5 | 0.00 | 0.00 | 48.7 1.0 | 55.2 1.4 |
| Lower Bennett Valley | 5/3/26 | 1230 | 59.7 1.8 | 66 6 | 48.2 4.1 | 3.0 1.0 | N | 354 | 7.6 0.1 | 0.00 | 0.00 | 51.7 1.2 | 60.4 1.6 |
| Kenwood (Wildwood) | 5/3/26 | 1230 | 60.1 1.9 | 63 7 | 47.5 4.6 | 4.0 1.1 | NNW | 331 | 9.9 2.5 | 0.00 | 0.00 | 51.6 1.5 | 61.0 1.5 |
| Crane Creek (Ranch 62) | 5/3/26 | 1230 | 61.3 0.6 | 61 9 | 47.7 3.2 | 1.6 0.6 | SW | 214 | 8.2 2.1 | 0.00 | 0.00 | 52.0 0.3 | 61.6 0.7 |
| Rohnert Park-West (Stony Point) | 5/3/26 | 1230 | 60.2 2.9 | 71 12 | 50.8 1.3 | 4.7 0.7 | SW | 233 | 8.8 0.4 | 0.00 | 0.00 | 52.4 0.2 | 60.2 2.0 |
| Rice-Spivak Vineyard | 5/3/26 | 1230 | 61.1 2.2 | - | - | - | - | - | - | - | 51.8 0.1 | 62.7 3.1 |
| Cartograph Wines Base | 5/3/26 | 1230 | 59.1 3.0 | 75 13 | 51.1 1.5 | 5.9 0.2 | S | 187 | 10.2 0.4 | 0.00 | 0.00 | 51.4 0.2 | 59.1 2.4 |
| Cartograph Wines Remote | 5/3/26 | 1230 | 61.0 3.3 | - | - | - | - | - | - | - | 52.1 0.0 | 61.2 3.1 |
| Penngrove (Asellus) | 5/3/26 | 1230 | 61.9 1.8 | 60 12 | 47.8 3.3 | 3.8 0.9 | SW | 220 | 10.1 1.4 | 0.00 | 0.00 | 52.3 0.1 | 62.3 1.6 |
| Sonoma Valley (Bedrock) | 5/3/26 | 1230 | 60.5 2.1 | 60 4 | 46.4 3.6 | - | - | - | 0.00 | 0.00 | 50.7 4.9 | 62.9 0.6 |
| Sonoma-West (Arnold) | 5/3/26 | 1230 | 61.7 1.1 | 59 5 | 47.4 3.0 | 5.1 1.7 | W | 259 | 9.6 1.3 | 0.00 | 0.00 | 53.2 7.8 | 62.0 3.1 |
| Sonoma Valley HS | 5/3/26 | 1230 | 61.6 0.4 | 67 9 | 50.4 2.9 | 3.5 1.3 | WSW | 254 | 8.5 3.8 | 0.00 | 0.01 | 53.1 3.5 | 62.2 0.7 |
| Sonoma East (Bundschu01) | 5/3/26 | 1230 | 62.2 1.2 | 59 7 | 47.7 4.2 | 6.4 3.4 | WNW | 283 | 13.2 5.7 | 0.00 | 0.00 | 53.2 4.6 | 62.6 1.3 |
| Sonoma-SE (Napoli) | 5/3/26 | 1230 | 63.1 0.0 | 56 7 | 47.4 3.3 | 6.7 6.7 | WNW | 294 | 10.8 10.8 | 0.00 | 0.00 | 53.1 3.8 | 64.1 0.4 |
| Schellville (Sasaki) | 2/7/26 | 1900 | 53.4 2.2 | 88 10 | 49.9 1.0 | 3.3 1.8 | SW | 225 | 5.8 4.0 | 0.00 | 0.00 | 47.0 0.8 | 62.8 8.4 |
| Petaluma (Ranch 10) | 5/3/26 | 1230 | 62.0 1.6 | 59 6 | 47.5 4.1 | 4.0 1.2 | W | 278 | 8.4 1.1 | 0.00 | 0.00 | 53.5 1.1 | 63.2 0.9 |
| Carneros (Ranch 71) | 5/3/26 | 1230 | 61.1 0.4 | 60 11 | 47.1 4.2 | 8.7 5.5 | W | 273 | 13.9 6.6 | 0.00 | 0.00 | 52.1 0.8 | 61.6 0.0 |
| Ricci Vineyards (Carneros) | 5/3/26 | 1230 | 61.8 0.5 | 60 9 | 47.9 4.2 | 7.5 2.1 | WNW | 286 | 12.5 1.1 | 0.00 | 0.00 | 52.9 1.9 | 62.0 1.6 |
| Carneros Upper (Ranch 81) | 5/3/26 | 1230 | 60.9 0.9 | 58 13 | 46.2 4.5 | 9.0 2.3 | W | 266 | 15.0 2.9 | - | - | 52.1 0.0 | 61.0 0.6 |
| Carneros Lower (Ranch 81) | 5/3/26 | 1230 | 62.7 2.4 | 61 16 | 48.9 4.2 | 2.9 1.8 | NW | 304 | 8.8 1.6 | 0.00 | 0.00 | 53.0 0.4 | 63.6 2.8 |
| Max | 63.1 | 75 | 51.1 | 9.0 | - | 15.0 | 0.00 | 0.01 | 53.5 | 64.1 | ||
| Avg | 60.9 | 63 | 48.0 | 4.9 | - | 10.0 | 0.00 | - | - | - | ||
| Min | 54.4 | 56 | 46.1 | 1.5 | - | 5.2 | 0.00 | 0.00 | 48.7 | 55.2 |